User: anonymous   Login
Location: Unspecified
(0.0000°N, 0.0000°E)
Time: 18:32:04
(UTC+01:00)
Language:

Cosmos 1703 - Orbit

View from above orbital plane
View from above orbital plane
View from above satellite
View from above satellite

Ground track
Ground track

The orbit data is extracted from the following two-line orbital elements,

1 16262U 85108A   17052.20879184  .00001540  00000-0  92485-4 0  9995
2 16262  82.4797   3.8280 0010110 324.8090  35.2471 15.10181567701393
Epoch (UTC): 21 February 2017 05:00:39
Eccentricity: 0.0010110
inclination: 82.4797°
perigee height: 528 km
apogee height: 542 km
right ascension of ascending node: 3.8280°
argument of perigee: 324.8090°
revolutions per day: 15.10181567
mean anomaly at epoch: 35.2471°
orbit number at epoch: 70139

The dashed part of the orbit path shows where the satellite is in the earth's shadow,  

DLR